Content
SEND FEEDBACK

Daily
Averages
Monthly
Summary
United States of America

ST. LOUIS - SAINT LOUIS UNIVERSITY, MISSOURI


Home > North America > United States > Missouri
Elevation: 580 feet     Latitude: 38 38N     Longitude: 090 14W

WEATHER
 
SELECT A DAY
Number of Records: 186,092;   Date Range: 1/1/95 - 7/29/14
 
SHARE

PRINT THIS DATA

[ ← Previous Day ]
WEATHER ALMANAC - MARCH 15, 2013
[ Next Day → ]
[ °C ]   °F
Weather ElementAverageHighLow
Temperature50.7 °F70 °F (2:53 pm)28.9 °F (5:53 am)
Dewpoint38.1 °F48.9 °F (8:53 pm)26.1 °F (5:53 am)
Humidity65.8 %92 % (7:53 am)35 % (2:53 pm)
Barometer29.87 in30.09 in (1:53 am)29.66 in (11:53 pm)
Wind Speed2.3 mph9.2 mph (4:53 pm)
Weather ElementAverage
Visibility9.4 mi
Wind DirectionENE (66.5 °)

Weather ElementTotal
Precipitation---
Heating Degree Days15.6 (Base 65)
Averaged from 23 records on March 15, 2013
WEATHER CONDITIONS BREAKOUT
WIND DIRECTION BREAKOUT
WEATHER BY HOUR - MARCH 15, 2013
[ °C ]   °F
Local TimeTemperatureDewpointHumidityBarometerVisibilityWind DirectionWind SpeedGust SpeedPrecipitationEventsConditions
1:53 AM32.0 °F28.0 °F85 %30.09 in10.0 miCalmClear
2:53 AM33.1 °F28.0 °F82 %30.06 in10.0 miCalmClear
3:53 AM30.9 °F28.0 °F89 %30.03 in10.0 miCalmClear
4:53 AM30.0 °F27.0 °F88 %30.01 in8.0 miCalmClear
5:53 AM28.9 °F26.1 °F89 %30.00 in8.0 miCalmClear
6:53 AM28.9 °F26.1 °F89 %30.00 in8.0 miCalmClear
7:53 AM30.0 °F28.0 °F92 %30.01 in8.0 miCalmClear
8:53 AM36.0 °F30.9 °F82 %29.99 in7.0 miCalmClear
9:53 AM42.1 °F34.0 °F73 %29.99 in10.0 miWSW (240°)3.5 mphClear
10:53 AM52.0 °F39.0 °F61 %29.96 in10.0 miCalmClear
11:53 AM60.1 °F41.0 °F49 %29.95 in10.0 miCalmClear
12:53 PM66.0 °F43.0 °F43 %29.91 in10.0 miCalmClear
1:53 PM69.1 °F41.0 °F36 %29.86 in10.0 miCalm0.00 inClear
2:53 PM70.0 °F41.0 °F35 %29.82 in10.0 miSSE (160°)4.6 mphClear
3:53 PM68.0 °F46.0 °F45 %29.78 in10.0 miSE (130°)8.1 mphClear
4:53 PM66.0 °F45.0 °F47 %29.75 in10.0 miSE (140°)9.2 mphScattered Clouds
5:53 PM66.0 °F44.1 °F45 %29.73 in10.0 miSSE (150°)6.9 mphPartly Cloudy
6:53 PM66.9 °F46.0 °F47 %29.71 in10.0 miSouth (170°)6.9 mphClear
7:53 PM64.9 °F46.9 °F52 %29.69 in10.0 miSouth (170°)3.5 mphClear
8:53 PM64.9 °F48.9 °F56 %29.68 in10.0 miSSW (200°)5.8 mphClear
9:53 PM57.0 °F46.9 °F69 %29.68 in10.0 miCalmClear
10:53 PM52.0 °F46.0 °F80 %29.68 in10.0 miCalmClear
11:53 PM52.0 °F46.0 °F80 %29.66 in7.0 miSouth (170°)4.6 mphClear
Hourly data recorded from KCPS, located miles away from St. Louis - Saint Louis University, Missouri







STORIES FROM OUR PARTNERS